Location: Kershaw
(34.5481°N, 80.5823°W)
Time: 11:33:42
(UTC+00:00)

A-11 Canister half - Pass Details

Date: 03 October 2022
Orbit: 1524 x 1685 km, 47.3° (Epoch: 25 November)

Event Time Altitude Azimuth Distance (km) Brightness Sun altitude
Rises 23:15:41 0° 287° (WNW) 4,675 13.2 -3.3°
Reaches altitude 10° 23:19:03 10° 295° (WNW) 3,702 12.2 -4.0°
Maximum altitude 23:27:34 38° 1° (N) 2,227 9.9 -5.8°
Drops below altitude 10° 23:36:18 10° 67° (ENE) 3,792 10.5 -7.6°
Enters shadow 23:37:33 - 70° (ENE) 4,144 10.7 -7.8°
